Probability
0 0 0 0 0 0 0 0 0 0 0 0 0 0 0 0 0 0 0 0 0 0 0 0 0 0 0 0 0 0 0 0 0 0 0 0 0 0 0 0 0 0 0 0 0 0 0 0 0
0 0 0 0 0 0 0 0 0 0 0 0 0 0 0 0 0 0 0 0 0 0 0 0 0 0 0 0 0 0 0 0 0 0 0 0 0 0 0 0 0 0 0 0 0 0 0 0 0
0 0 0 0 0 0 0 0 0 0 0 0 0 0 0 0 0 0 0 0 0 0 0 0 0 0 0 0 0 0 0 0 0 0 0 0 0 0 0 0 0 0 0 0 0 0 0 0 0
0 0 0 0 0 0 0 0 0 0 0 0 0 0 0 0 0 0 0 0 0 0 0 0 0 0 0 0 0 0 0 0 0 0 0 0 0 0 0 0 0 0 0 0 0 0 0 0 0
0 0 0 0 0 0 0 0 0 0 0 0 0 0 0 0 0 0 0 0 0 0 0 0 0 0 0 0 0 0 0 0 0 0 0 0 0 0 0 0 0 0 0 0 0 0 0 0 0
0 0 0 0 0 0 0 0 0 0 0 0 0 0 0 0 0 0 0 0 0 0 0 0 0 0 0 0 0 0 0 0 0 0 0 0 0 0 0 0 0 0 0 0 0 0 0 0 0
0 0 0 0 0 0 0 0 0 0 0 0 0 0 0 0 0 0 0 0 0 0 0 0 0 0 0 0 0 0 0 0 0 0 0 0 0 0 0 0 0 0 0 0 0 0 0 0 0
0 0 0 0 0 0 0 0 0 0 0 0 0 0 0 0 0 0 0 0 0 0 0 0 0 0 0 0 0 0 0 0 0 0 0 0 0 0 0 0 0 0 0 0 0 0 0 0 0
0 0 0 0 0 0 0 0 0 0 0 0 0 0 0 0 0 0 0 0 0 0 0 0 0 0 0 0 0 0 0 0 0 0 0 0 0 0 0 0 0 0 0 0 0 0 0 0 0
0 0 0 0 0 0 0 0 0 0 0 0 0 0 0 0 0 0 0 0 0 0 0 0 0 0 0 0 0 0 0 0 0 0 0 0 0 0 0 0 0 0 0 0 0 0 0 0 0
0 0 0 0 0 0 0 0 0 0 0 0 0 0 0 0 0 0 0 0 0 0 0 0 0 0 0 0 0 0 0 0 0 0 0 0 0 0 0 0 0 0 0 0 0 0 0 0 0
0 0 0 0 0 0 0 0 0 0 0 0 0 0 0 0 0 0 0 0 0 0 0 0 0 0 0 0 0 0 0 0 0 0 0 0 0 0 0 0 0 0 0 0 0 0 0 0 0
0 0 0 0 0 0 0 0 0 0 0 0 0 0 0 0 0 0 0 0 0 0 0 0 0 0 0 0 0 0 0 0 0 0 0 0 0 0 0 0 0 0 0 0 0 0 0 0 0
0 0 0 0 0 0 0 0 0 0 0 0 0 0 0 0 0 0 0 0 0 0 0 0 0 0 0 0 0 0 0 0 0 0 0 0 0 0 0 0 0 0 0 0 0 0 0 0 0
0 0 0 0 0 0 0 0 0 0 0 0 0 0 0 0 0 0 0 0 0 0 0 0 0 0 0 0 0 0 0 0 0 0 0 0 0 0 0 0 0 0 0 0 0 0 0 0 0
0 0 0 0 0 0 0 0 0 0 0 0 0 0 0 0 0 0 0 0 0 0 0 0 0 0 0 0 0 0 0 0 0 0 0 0 0 0 0 0 0 0 0 0 0 0 0 0 0
0 0 0 0 0 0 0 0 0 0 0 0 0 0 0 0 0 0 0 0 0 0 0 0 0 0 0 0 0 0 0 0 0 0 0 0 0 0 0 0 0 0 0 0 0 0 0 0 0
0 0 0 0 0 0 0 0 0 0 0 0 0 0 0 0 0 0 0 0 0 0 0 0 0 0 0 0 0 0 0 0 0 0 0 0 0 0 0 0 0 0 0 0 0 0 0 0 0
0 0 0 0 0 0 0 0 0 0 0 0 0 0 0 0 0 0 0 0 0 0 0 0 0 0 0 0 0 0 0 0 0 0 0 0 0 0 0 0 0 0 0 0 0 0 0 0 0
0 0 0 0 0 0 0 0 0 0 0 0 0 0 0 0 0 0 0 0 0 0 0 0 0 0 0 0 0 0 0 0 0 0 0 0 0 0 0 0 0 0 0 0 0 0 0 0 0
0 0 0 0 0 0 0 0 0 0 0 0 0 0 0 0 0 0 0 0 0 0 0 0 0 0 0 0 0 0 0 0 0 0 0 0 0 0 0 0 0 0 0 0 0 0 0 0 0
0 0 0 0 0 0 0 0 0 0 0 0 0 0 0 0 0 0 0 0 0 0 0 0 0 0 0 0 0 0 0 0 0 0 0 0 0 0 0 0 0 0 0 0 0 0 0 0 0
0 0 0 0 0 0 0 0 0 0 0 0 0 0 0 0 0 0 0 0 0 0 0 0 0 0 0 0 0 0 0 0 0 0 0 0 0 0 0 0 0 0 0 0 0 0 0 0 0
0 0 0 0 0 0 0 0 0 0 0 0 0 0 0 0 0 0 0 0 0 0 0 0 0 0 0 0 0 0 0 0 0 0 0 0 0 0 0 0 0 0 0 0 0 0 0 0 0
0 0 0 0 0 0 0 0 0 0 0 0 0 0 0 0 0 0 0 0 0 0 0 0 0 0 0 0 0 0 0 0 0 0 0 0 0 0 0 0 0 0 0 0 0 0 0 0 0
0 0 0 0 0 0 0 0 0 0 0 0 0 0 0 0 0 0 0 0 0 0 0 0 0 0 0 0 0 0 0 0 0 0 0 0 0 0 0 0 0 0 0 0 0 0 0 0 0
0 0 0 0 0 0 0 0 0 0 0 0 0 0 0 0 0 0 0 0 0 0 0 0 0 0 0 0 0 0 0 0 0 0 0 0 0 0 0 0 0 0 0 0 0 0 0 0 0
0 0 0 0 0 0 0 0 0 0 0 0 0 0 0 0 0 0 0 0 0 0 0 0 0 0 0 0 0 0 0 0 0 0 0 0 0 0 0 0 0 0 0 0 0 0 0 0 0
0 0 0 0 0 0 0 0 0 0 0 0 0 0 0 0 0 0 0 0 0 0 0 0 0 0 0 0 0 0 0 0 0 0 0 0 0 0 0 0 0 0 0 0 0 0 0 0 0
0 0 0 0 0 0 0 0 0 0 0 0 0 0 0 0 0 0 0 0 0 0 0 0 0 0 0 0 0 0 0 0 0 0 0 0 0 0 0 0 0 0 0 0 0 0 0 0 0
Wind_Speed
6 9 7 2 3 1 7 6 8 7 5 6 8 8 9 8 7 11 4 5 5 6 9 11 15 16 17 18 19 20 20 21 22 22 23 23 23 23 23 24 24 25 25 25 26 26 26 26 26
7 7 4 3 3 1 5 6 10 8 8 7 5 8 9 9 10 10 6 4 6 7 8 10 14 15 16 17 18 19 20 21 21 22 22 22 23 23 23 23 23 24 24 24 25 25 25 26 26
9 7 4 3 3 4 7 10 13 11 8 6 5 8 7 7 9 6 5 4 7 7 8 9 13 14 16 17 18 19 19 20 21 21 22 22 22 22 22 23 23 24 24 24 24 24 25 25 25
5 4 4 2 7 6 8 13 13 10 5 6 9 8 6 6 5 8 6 5 8 7 7 7 12 13 15 16 17 18 18 19 20 20 21 22 22 22 22 22 23 23 24 24 24 24 24 24 25
3 4 3 5 6 7 11 13 11 10 7 6 8 8 7 7 10 9 6 6 7 6 5 6 10 12 13 14 16 16 17 18 19 19 21 21 21 21 21 22 23 23 24 24 24 25 25 25 25
3 4 4 5 7 7 8 8 7 10 8 5 7 9 7 8 8 7 7 6 6 5 5 4 8 10 10 11 13 14 15 17 17 18 20 21 21 21 21 22 23 24 24 24 25 25 25 25 26
3 3 3 7 7 6 8 5 5 8 7 6 6 8 8 9 8 7 6 7 6 5 5 4 5 6 9 10 11 13 14 15 17 17 19 20 20 21 22 22 24 24 25 26 26 26 26 27 26
4 2 0 5 8 6 9 3 3 4 6 4 2 6 9 13 10 7 6 6 6 5 5 4 5 5 5 5 10 12 13 14 16 17 19 20 19 19 21 20 23 25 25 26 26 26 28 28 26
3 3 1 3 6 9 10 5 4 5 8 3 4 7 13 18 12 8 6 6 6 6 5 4 5 4 5 5 8 9 11 12 13 12 17 15 8 8 11 17 23 24 25 26 26 27 27 27 24
4 3 5 6 6 10 10 7 7 5 7 5 7 11 15 13 10 9 8 7 6 6 4 4 4 4 4 5 4 3 4 5 5 5 7 5 6 7 11 18 22 23 24 23 25 26 24 19 10
6 5 5 6 6 10 9 8 8 7 6 8 12 14 13 11 10 9 6 7 6 6 4 4 3 3 4 3 3 2 2 3 4 5 6 5 5 5 6 5 9 10 14 9 13 13 9 10 10
5 6 6 5 3 7 7 8 7 7 2 3 15 18 15 12 10 8 7 7 7 6 5 4 2 3 3 3 3 3 2 2 3 4 5 4 3 4 5 4 6 5 5 6 6 6 9 10 11
6 5 7 5 2 4 5 5 4 6 5 5 13 16 14 12 10 7 7 7 7 6 5 4 2 3 2 2 2 3 3 2 3 3 4 5 4 4 5 5 5 6 5 6 6 7 9 9 10
8 8 7 6 4 3 4 5 3 6 8 9 12 13 12 11 10 8 7 6 6 6 5 4 2 2 1 2 2 2 2 3 2 3 4 4 4 4 5 5 5 5 5 5 6 8 8 8 8
9 7 5 5 6 4 3 6 9 6 10 10 11 11 12 11 9 9 9 7 7 7 5 4 2 1 1 2 2 3 2 2 2 2 3 4 4 5 5 5 5 5 5 7 6 8 7 8 9
6 5 5 8 7 5 3 7 7 12 11 11 10 10 10 10 10 8 9 7 7 7 5 4 1 1 1 2 3 2 2 2 2 2 2 4 5 5 4 4 5 6 6 6 6 6 6 7 8
6 7 4 8 8 7 6 6 6 11 11 11 11 11 11 10 10 9 9 9 8 7 6 5 3 1 1 2 2 3 2 2 2 1 2 3 4 5 4 4 5 6 5 5 8 7 7 8 9
2 5 4 6 10 8 8 9 7 11 12 11 11 11 11 12 12 10 10 10 9 7 6 5 4 2 1 1 2 3 2 2 2 2 2 3 3 5 5 5 6 6 5 6 6 8 8 7 8
5 5 6 3 7 6 9 12 9 14 12 11 11 11 12 12 11 11 11 10 9 8 6 5 3 2 1 1 1 2 3 3 3 2 3 4 4 5 5 5 5 6 6 7 8 8 9 8 7
5 6 5 5 5 5 7 11 8 13 16 13 11 11 12 11 11 12 12 11 10 9 8 6 4 3 1 1 1 2 3 3 4 3 3 4 5 6 7 6 5 6 6 8 8 8 8 10 7
7 2 4 4 2 7 4 7 4 4 8 10 10 10 10 13 13 13 13 11 10 9 8 6 5 3 2 1 1 3 3 3 3 3 3 4 5 6 6 6 6 6 6 7 8 8 9 10 9
3 5 2 4 5 3 4 4 5 5 6 9 11 11 11 10 11 12 14 13 11 9 8 7 5 4 3 2 2 3 3 3 4 3 4 5 5 6 6 6 6 6 6 7 8 8 7 10 10
2 2 3 5 5 5 5 4 3 5 7 11 13 13 12 10 10 11 13 13 11 10 9 7 6 5 4 3 3 3 4 4 3 4 5 5 5 6 6 6 6 6 6 7 8 8 8 7 9
4 4 5 3 3 5 4 3 4 6 6 7 10 11 11 10 9 9 10 11 9 10 9 7 6 6 5 4 4 4 4 5 5 6 5 4 4 5 6 7 6 7 7 7 8 8 10 9 9
4 4 2 3 3 3 2 3 7 6 6 5 7 8 8 9 9 9 11 12 11 11 9 8 7 7 6 5 4 4 4 5 5 5 5 5 4 4 6 7 6 7 7 7 7 8 9 9 9
2 3 3 2 3 2 3 6 6 6 6 4 3 3 5 7 8 9 11 11 11 11 10 9 8 7 6 5 4 4 4 3 3 4 5 5 5 5 6 6 7 8 8 9 7 7 9 9 8
3 1 2 3 4 4 6 6 3 3 4 6 6 7 8 8 9 9 10 11 11 11 10 9 8 7 6 5 5 5 4 4 5 5 5 5 5 6 7 7 8 8 8 8 7 6 9 9 8
3 4 1 3 3 5 7 6 6 7 8 10 10 10 11 10 10 10 10 11 11 10 9 9 8 7 6 5 5 4 4 5 5 5 6 6 6 6 7 7 7 7 7 7 7 7 8 9 8
5 3 4 3 2 3 5 8 3 7 5 5 8 9 10 11 11 11 10 10 10 9 9 8 8 7 6 6 5 4 4 5 5 5 6 6 6 6 7 7 8 8 7 7 7 7 10 9 9
1 4 5 4 4 5 4 11 5 5 4 5 6 5 6 9 10 10 10 10 10 10 9 9 8 7 6 6 4 4 5 5 5 6 6 6 6 6 7 7 8 8 8 7 8 9 10 9 10
Wind_Direction
242 237 231 244 247 129 87 90 105 112 78 56 49 62 69 45 46 116 120 76 70 56 46 25 25 28 28 29 28 27 26 24 22 20 18 16 15 14 12 11 9 7 5 3 1 359 357 355 353
256 241 251 234 251 145 104 124 113 93 104 108 84 89 87 81 89 106 111 89 80 67 56 30 30 31 31 30 28 26 24 22 19 18 15 13 12 11 10 9 7 5 2 0 358 356 353 351 349
267 260 253 245 41 40 117 111 103 103 124 117 70 41 65 98 103 96 110 120 91 77 72 36 34 34 32 30 28 25 22 19 17 15 13 10 8 7 7 6 4 2 359 358 355 353 350 348 346
272 251 238 42 73 47 107 114 123 126 114 105 111 90 66 49 83 110 126 105 87 78 82 53 38 36 33 30 26 23 20 16 14 12 10 7 5 4 4 3 1 359 356 354 352 350 348 345 343
239 258 220 102 89 85 98 120 139 139 133 139 120 106 99 88 99 114 112 91 85 82 83 73 46 36 31 28 24 20 17 13 11 10 7 4 2 1 0 0 358 355 353 351 349 347 345 343 340
260 265 264 127 115 105 109 134 160 125 119 123 118 114 121 132 127 126 125 106 95 90 77 75 52 37 29 26 21 15 12 10 7 6 5 1 360 358 358 358 355 352 350 349 346 344 343 341 338
298 297 338 98 126 145 136 150 155 125 135 149 136 113 133 152 138 141 131 113 98 90 77 68 58 31 17 17 18 8 8 6 3 4 3 360 358 356 355 356 351 349 348 346 344 342 342 339 337
316 285 140 121 147 145 127 132 69 105 106 85 109 144 159 155 145 146 130 122 119 105 83 56 62 41 16 2 5 3 4 3 1 2 0 0 357 353 350 351 346 346 346 344 342 342 340 339 339
282 262 125 83 140 127 132 130 68 46 96 106 52 38 126 137 147 149 158 161 139 111 94 70 54 38 13 354 2 0 359 359 0 359 357 358 348 344 344 343 344 344 343 341 341 341 339 340 337
348 16 55 27 37 127 148 142 138 150 141 147 109 93 116 137 155 174 184 157 127 106 88 78 59 40 19 1 357 345 351 355 351 357 355 348 348 337 346 342 340 342 339 341 338 338 341 337 329
36 63 86 44 41 120 144 135 157 175 185 182 163 147 146 159 173 187 172 131 117 111 93 83 74 57 29 356 345 333 334 350 344 355 350 352 347 335 343 338 335 335 336 337 332 335 331 326 325
78 65 82 77 52 121 141 140 177 217 83 122 154 153 160 176 185 185 163 134 128 120 114 92 74 73 40 2 328 321 340 345 335 346 348 355 339 337 340 333 329 330 327 326 329 327 321 320 319
96 99 83 95 96 113 130 168 199 214 121 101 132 150 168 184 186 178 148 137 140 132 125 112 87 67 39 341 318 341 333 335 328 339 346 355 347 340 337 328 325 323 323 327 325 317 316 316 313
110 118 120 128 113 130 179 192 217 218 139 141 148 164 178 189 183 165 153 165 155 136 128 111 82 53 14 350 339 320 318 314 328 339 347 353 357 338 330 321 318 315 320 321 314 313 313 310 308
132 131 144 163 167 161 226 230 213 180 146 159 168 178 187 193 185 173 171 175 150 133 130 126 141 65 11 355 328 312 293 316 328 339 343 355 355 332 327 314 313 312 316 315 311 308 306 310 313
183 181 188 180 176 139 216 264 196 150 159 175 182 188 193 198 189 181 173 163 143 143 145 137 155 11 12 345 312 293 294 326 323 341 336 354 338 325 320 311 308 309 314 310 307 303 313 310 307
205 233 181 156 184 158 213 262 127 146 172 186 191 196 195 199 197 188 174 160 152 154 149 157 156 204 356 330 307 303 311 329 319 327 327 330 320 319 317 304 299 310 309 304 308 317 307 305 304
341 321 341 160 180 188 218 247 188 174 188 196 196 202 200 203 202 192 175 163 155 152 154 167 167 169 50 357 333 315 327 320 301 295 296 315 309 314 310 296 302 307 303 302 302 302 299 297 299
326 314 297 90 149 203 241 254 232 177 191 205 205 204 208 208 198 187 174 162 156 158 169 174 170 152 111 55 331 310 312 299 292 279 296 308 306 305 298 298 299 300 298 298 298 300 302 301 298
280 285 303 103 158 214 271 272 255 180 193 202 209 210 209 205 196 185 174 168 169 171 172 169 168 157 152 137 266 257 268 269 269 272 305 303 300 294 299 297 296 295 297 298 298 301 301 304 307
271 289 355 344 265 216 270 284 165 146 181 197 216 224 216 206 199 187 178 176 174 174 167 168 158 170 185 171 253 281 285 287 299 321 312 293 289 289 290 290 290 294 296 295 298 299 304 306 304
321 54 355 301 298 262 187 286 197 172 197 210 215 221 226 218 200 187 179 178 176 167 147 151 165 186 191 194 240 277 287 289 292 290 281 287 292 297 296 291 293 294 292 292 298 308 301 301 303
347 38 280 276 270 277 206 247 211 167 212 219 217 218 219 215 202 188 177 175 166 149 146 157 172 193 194 202 234 256 269 275 285 290 291 296 296 294 293 293 296 294 291 292 297 301 298 296 295
304 268 236 258 260 254 175 219 255 194 198 189 195 202 205 201 195 179 162 156 149 143 148 161 181 199 195 205 230 244 264 281 293 297 300 298 293 290 292 298 298 294 292 295 297 298 299 295 294
230 276 240 224 222 221 130 229 251 173 160 176 184 185 185 183 177 169 160 158 155 155 160 170 187 202 198 205 226 243 256 268 276 286 291 294 293 292 291 302 296 294 292 296 298 302 302 298 298
284 295 331 300 306 321 196 231 246 151 147 147 153 163 170 177 176 174 168 164 163 164 168 176 190 199 197 204 225 239 251 255 259 270 278 283 282 284 287 293 293 294 297 305 303 303 300 301 300
287 211 34 309 285 272 253 229 190 121 174 193 203 207 210 200 186 177 169 166 168 170 174 180 186 192 196 203 221 237 248 262 265 272 275 273 273 286 293 294 292 293 296 298 302 298 301 302 302
280 326 270 248 283 286 284 264 219 192 216 209 211 214 212 199 186 179 175 173 171 170 171 175 181 191 194 200 218 233 237 252 259 268 271 273 278 285 291 291 293 294 296 298 299 300 299 301 302
185 215 230 264 280 247 283 272 222 163 172 193 210 212 203 191 186 181 177 172 166 162 165 173 184 189 194 201 214 235 248 256 263 265 268 275 282 287 290 293 294 295 296 298 296 296 299 299 302
219 224 201 216 235 213 252 271 243 172 167 196 223 212 188 180 178 175 171 167 167 168 171 180 186 187 193 195 204 232 249 257 261 267 274 282 286 287 288 291 293 295 298 295 291 292 297 293 294